THOR ABLESTAR DEB, 172

Orbit data source: Space-Track

THOR ABLESTAR DEB, 172 is space debris in LEO originally from a launch on Thu, 29 Jun 1961 UTC launched from the Air Force Eastern Test Range (AFETR). Debris objects in space refer to the collection of defunct objects orbiting the Earth. Examples of debris include non-operational satellites, rocket bodies, and fragments generated from explosions, collisions, or faulty payload assembly.

Loading next visibility...
Identifier
172, 1961-015AY
Orbit
LEO
Country
Flag of USUS
Related business
Manufacturer
Unknown
Mission
Spacecraft
Bus & Motor
Unknown
Mass
Unknown
Launch date (UTC)
1961-06-29 (64 years ago)
Launch vehicle
Unknown
Launch site
Air Force Eastern Test Range (AFETR)
Object type
Payload
Rocket body
Debris
Shape & HBR
Unknown
Radar Cross Section
Small (<0.1 m²)

Expand to show TLE details & history
Last TLE update: 14 hours ago

TLE from 14 hours ago
0 THOR ABLESTAR DEB
1 00172U 61015AY  25258.55818914  .00000222  00000-0  37181-3 0  9995
2 00172  67.0665  76.8531 0138371 259.6591  98.8851 13.59016682167792
Epoch: 2025-09-15T13:23Z
TLE epoch observation values (Epoch: 2025-09-15T13:23:47.541Z)
Latitude
0.00001°
Longitude
-118.8561°
Altitude
1,058.568 km
Speed
7.315 km/s
True Right ascension
05h 07m 24s
True Declination
0° 00' 00"
Sunlit
Object was in daylight at epoch
Visualization orbit readout
Latitude
Unknown
Longitude
Unknown
Altitude
Unknown
Speed
Unknown
Apparent Right ascension
Unknown
Apparent Declination
Unknown
Sunlit
N/A
Visualization observer readout
Local Sidereal Time
20:20:41
Azimuth
Unknown
Elevation
Unknown
Doppler factor
Unknown
Orbital elements
Apogee altitude
1,140.269 km
Perigee altitude
935.043 km
Semi-major axis
7,415.793 km
Eccentricity
0.01384
Inclination
67.0665°
RAAN
76.8531°
Arg. of periapsis
259.6591°
True anomaly
100.44732°
Mean anomaly
98.8851°
Eccentric anomaly
99.66665°
Mean motion
3.39865 °/min
Orbital period
105.92 mins
BSTAR
0.00037181
Loading maneuver chart data...
Computing Atmospheric mass density...

Documentation

Showing up to 5 results
|